DW6455 Orivesi FI current weather conditions

sailwx.info

Wind from 146 at 6 knots gusting 13

Air temperature 0.6° C
Dewpoint -0.0° C

Last reported at 2015-Mar-30 15:47 UTC.
Time now 2015-Mar-30 16:16 UTC

Location: N 61°39' E 024°21'.
View on Google Maps.

See reports from other nearby stations

  
Tides and Currents Weather Stations Pressure Air Temp Water Temp Dewpoint Dewpoint Depression Visibility Wind Speed Wind Dir Waves Ship Positions
date/time (UTC)wind fromknots sea level pressurealtimeterstation pressurevisibilityair tempwater tempwave heightnotes
2015-Mar-30 15:47 146 6 gusting 13 0.6
2015-Mar-30 15:42 146 6 gusting 13 0.6
2015-Mar-30 15:37 156 6 gusting 13 0.6
2015-Mar-30 15:32 157 6 gusting 13 0.6
2015-Mar-30 15:27 136 6 gusting 13 0.6
2015-Mar-30 15:22 170 6 gusting 13 0.6
2015-Mar-30 15:17 149 6 gusting 14 0.6
2015-Mar-30 15:12 130 6 gusting 14 0.6
2015-Mar-30 15:07 127 6 gusting 15 0.6
2015-Mar-30 15:02 149 7 gusting 15 0.6
2015-Mar-30 14:57 134 6 gusting 15 0.6
2015-Mar-30 14:52 135 7 gusting 15 0.6
2015-Mar-30 14:47 161 7 gusting 13 0.6
2015-Mar-30 14:42 123 6 gusting 13 0.6
2015-Mar-30 14:37 153 6 gusting 13 0.6
2015-Mar-30 14:32 167 6 gusting 13 0.6
2015-Mar-30 14:27 166 6 gusting 12 0.6
2015-Mar-30 14:22 171 6 gusting 12 0.6
2015-Mar-30 14:17 134 6 gusting 13 0.6
2015-Mar-30 14:12 163 6 gusting 13 0.6
2015-Mar-30 14:07 146 6 gusting 13 0.6
2015-Mar-30 14:02 136 6 gusting 13 0.6
2015-Mar-30 13:57 122 6 gusting 13 0.6
2015-Mar-30 13:52 161 5 gusting 13 0.6
2015-Mar-30 13:47 142 5 gusting 13 0.6
2015-Mar-30 13:42 176 6 gusting 13 0.6
2015-Mar-30 13:37 141 6 gusting 15 0.6
2015-Mar-30 13:32 103 6 gusting 15 0.6
2015-Mar-30 13:27 144 6 gusting 11 0.6
2015-Mar-30 13:22 150 6 gusting 11 0.6
2015-Mar-30 13:17 123 6 gusting 11 0.6
2015-Mar-30 13:12 136 6 gusting 11 0.6
2015-Mar-30 13:07 159 6 gusting 12 0.6
2015-Mar-30 13:02 123 5 gusting 12 0.6
2015-Mar-30 12:57 159 6 gusting 13 0.6
2015-Mar-30 12:52 144 6 gusting 13 0.6
2015-Mar-30 12:47 144 6 gusting 13 0.6
2015-Mar-30 12:42 159 6 gusting 13 1.1
2015-Mar-30 12:37 137 5 gusting 13 1.1
2015-Mar-30 12:32 159 6 gusting 13 1.1
2015-Mar-30 12:27 134 6 gusting 17 1.1
2015-Mar-30 12:22 154 5 gusting 17 1.1
2015-Mar-30 12:17 194 6 gusting 17 1.1
2015-Mar-30 12:12 128 6 gusting 17 1.1
2015-Mar-30 12:07 146 6 gusting 17 1.1
2015-Mar-30 12:02 188 7 gusting 17 1.1
2015-Mar-30 11:57 169 6 gusting 13 1.1
2015-Mar-30 11:52 137 7 gusting 13 1.1
2015-Mar-30 11:47 143 6 gusting 13 1.1
2015-Mar-30 11:42 182 5 gusting 13 1.1
2015-Mar-30 11:37 140 6 gusting 15 1.1
2015-Mar-30 11:32 180 6 gusting 15 1.1
2015-Mar-30 11:27 156 7 gusting 15 1.1
2015-Mar-30 11:22 136 7 gusting 15 1.1
2015-Mar-30 11:17 144 6 gusting 15 1.1
2015-Mar-30 11:12 105 6 gusting 15 1.1
2015-Mar-30 11:07 143 7 gusting 16 1.1
2015-Mar-30 11:02 159 7 gusting 16 1.1
2015-Mar-30 10:57 169 6 gusting 14 1.1
2015-Mar-30 10:52 146 6 gusting 14 1.1
2015-Mar-30 10:47 162 6 gusting 14 1.1
2015-Mar-30 10:42 121 6 gusting 14 1.1
2015-Mar-30 10:37 180 7 gusting 13 1.1
2015-Mar-30 10:32 144 6 gusting 13 1.1
2015-Mar-30 10:27 159 7 gusting 13 1.1
2015-Mar-30 10:22 157 6 gusting 13 1.1
2015-Mar-30 10:17 178 6 gusting 16 1.1
2015-Mar-30 10:12 138 6 gusting 16 1.1
2015-Mar-30 10:07 155 7 gusting 16 1.1
2015-Mar-30 10:02 130 6 gusting 16 1.1
2015-Mar-30 09:57 146 6 gusting 13 1.1
2015-Mar-30 09:52 182 7 gusting 13 1.1
2015-Mar-30 09:47 144 7 gusting 13 1.1
2015-Mar-30 09:42 144 7 gusting 13 1.1
2015-Mar-30 09:37 170 6 gusting 16 1.1
2015-Mar-30 09:32 130 6 gusting 16 1.1
2015-Mar-30 09:27 165 6 gusting 16 1.1
2015-Mar-30 09:22 160 6 gusting 16 1.1
2015-Mar-30 09:17 149 6 gusting 14 1.1
2015-Mar-30 09:12 173 6 gusting 14 1.1
2015-Mar-30 09:07 145 6 gusting 14 1.1
2015-Mar-30 09:02 186 6 gusting 14 1.1
2015-Mar-30 08:57 105 6 gusting 13 1.1
2015-Mar-30 08:52 157 6 gusting 13 1.1
2015-Mar-30 08:47 145 6 gusting 14 1.1
2015-Mar-30 08:42 186 6 gusting 14 1.1
2015-Mar-30 08:37 146 7 gusting 14 1.1
2015-Mar-30 08:32 174 7 gusting 14 1.1
2015-Mar-30 08:27 173 6 gusting 15 1.1
2015-Mar-30 08:22 171 6 gusting 15 1.1
2015-Mar-30 08:17 182 7 gusting 15 1.1
2015-Mar-30 08:12 171 6 gusting 15 0.6
2015-Mar-30 08:07 155 6 gusting 15 0.6
2015-Mar-30 08:02 144 6 gusting 15 0.6
2015-Mar-30 07:57 184 6 gusting 15 0.6
2015-Mar-30 07:52 163 6 gusting 15 0.6
2015-Mar-30 07:47 134 6 gusting 13 0.6
2015-Mar-30 07:42 159 6 gusting 13 0.6
2015-Mar-30 07:37 182 6 gusting 13 0.6
2015-Mar-30 07:32 152 6 gusting 13 0.6
2015-Mar-30 07:27 175 6 gusting 13 0.6
2015-Mar-30 07:22 143 6 gusting 13 0.6
2015-Mar-30 07:17 156 6 gusting 13 0.6
2015-Mar-30 07:12 166 6 gusting 13 0.6
2015-Mar-30 07:07 159 5 gusting 13 0.6
2015-Mar-30 07:02 151 6 gusting 13 0.6
2015-Mar-30 06:57 159 6 gusting 12 0.6
2015-Mar-30 06:52 155 5 gusting 12 0.6
2015-Mar-30 06:47 192 5 gusting 10 0.6
2015-Mar-30 06:42 170 5 gusting 10 0.6
2015-Mar-30 06:37 198 5 gusting 10 0.6
2015-Mar-30 06:32 154 5 gusting 10 1.1
2015-Mar-30 06:27 168 5 gusting 13 1.1
2015-Mar-30 06:22 161 5 gusting 13 1.1
2015-Mar-30 06:17 138 6 gusting 12 1.1
2015-Mar-30 06:12 149 6 gusting 12 1.1
2015-Mar-30 06:07 169 6 gusting 12 1.1
2015-Mar-30 06:02 154 6 gusting 12 1.1
2015-Mar-30 05:57 161 6 gusting 12 1.1
2015-Mar-30 05:52 146 6 gusting 12 1.1
2015-Mar-30 05:47 164 6 gusting 16 1.1
2015-Mar-30 05:42 165 6 gusting 16 1.1
2015-Mar-30 05:37 157 7 gusting 16 1.1
2015-Mar-30 05:32 138 7 gusting 16 1.1
2015-Mar-30 05:27 173 8 gusting 18 1.1
2015-Mar-30 05:22 145 8 gusting 18 1.7
2015-Mar-30 05:17 177 8 gusting 18 1.7
2015-Mar-30 05:12 173 7 gusting 18 1.7
2015-Mar-30 05:07 204 8 gusting 18 1.7
2015-Mar-30 05:02 159 8 gusting 18 1.7
2015-Mar-30 04:57 186 8 gusting 19 1.7
2015-Mar-30 04:52 159 7 gusting 19 1.7
2015-Mar-30 04:47 157 7 gusting 19 1.7
2015-Mar-30 04:42 211 8 gusting 19 1.7
2015-Mar-30 04:37 204 7 gusting 19 1.7
2015-Mar-30 04:32 175 7 gusting 19 1.7
2015-Mar-30 04:27 150 6 gusting 14 1.7
2015-Mar-30 04:22 169 6 gusting 14 1.7
2015-Mar-30 04:17 165 6 gusting 14 1.7
2015-Mar-30 04:12 177 6 gusting 14 1.7
2015-Mar-30 04:07 173 6 gusting 16 1.7
2015-Mar-30 04:02 171 6 gusting 16 1.7
2015-Mar-30 03:57 217 7 gusting 16 1.7
2015-Mar-30 03:52 206 6 gusting 16 1.7
2015-Mar-30 03:47 165 6 gusting 18 1.7
2015-Mar-30 03:42 168 7 gusting 18 1.7
2015-Mar-30 03:37 189 7 gusting 18 1.7
2015-Mar-30 03:32 142 7 gusting 18 1.7
2015-Mar-30 03:27 164 6 gusting 16 1.7
2015-Mar-30 03:22 163 6 gusting 16 1.7
2015-Mar-30 03:17 176 6 gusting 16 1.7
2015-Mar-30 03:12 170 7 gusting 13 1.7
2015-Mar-30 03:07 157 6 gusting 13 1.7
2015-Mar-30 03:02 169 7 gusting 13 1.1
2015-Mar-30 02:57 155 6 gusting 18 1.1
2015-Mar-30 02:52 164 6 gusting 18 1.1
2015-Mar-30 02:47 155 7 gusting 18 1.1
2015-Mar-30 02:42 182 7 gusting 18 1.1
2015-Mar-30 02:37 148 7 gusting 18 1.1
2015-Mar-30 02:32 214 8 gusting 18 1.7
2015-Mar-30 02:27 157 8 gusting 19 1.7
2015-Mar-30 02:22 201 7 gusting 19 1.1
2015-Mar-30 02:17 192 8 gusting 19 1.1
2015-Mar-30 02:12 163 8 gusting 19 1.1
2015-Mar-30 02:07 171 8 gusting 18 1.1
2015-Mar-30 02:02 171 8 gusting 18 1.1
2015-Mar-30 01:57 175 9 gusting 19 1.1
2015-Mar-30 01:52 190 9 gusting 19 1.1
2015-Mar-30 01:47 175 9 gusting 19 1.1
2015-Mar-30 01:42 171 9 gusting 19 1.1
2015-Mar-30 01:37 166 9 gusting 19 1.1
2015-Mar-30 01:32 164 9 gusting 20 1.1
2015-Mar-30 01:27 162 9 gusting 20 1.7
2015-Mar-30 01:22 148 9 gusting 20 1.7
2015-Mar-30 01:17 210 8 gusting 20 1.7
2015-Mar-30 01:12 176 7 gusting 19 1.7
2015-Mar-30 01:07 200 8 gusting 19 1.7
2015-Mar-30 01:02 165 9 gusting 19 1.7
2015-Mar-30 00:57 162 9 gusting 19 1.7
2015-Mar-30 00:52 183 8 gusting 20 1.7
2015-Mar-30 00:47 158 6 gusting 20 1.7
2015-Mar-30 00:42 192 7 gusting 20 1.7
2015-Mar-30 00:37 151 8 gusting 20 1.7
2015-Mar-30 00:32 162 8 gusting 17 1.7
2015-Mar-30 00:27 161 9 gusting 17 1.7
2015-Mar-30 00:22 167 9 gusting 19 1.7
2015-Mar-30 00:17 146 10 gusting 19 1.7
2015-Mar-30 00:12 166 9 gusting 16 1.7
2015-Mar-30 00:07 140 7 gusting 16 1.7
2015-Mar-30 00:02 198 8 gusting 18 1.7
2015-Mar-29 23:57 171 10 gusting 18 2.2
2015-Mar-29 23:52 157 10 gusting 22 2.2
2015-Mar-29 23:47 157 9 gusting 22 2.2
2015-Mar-29 23:42 166 9 gusting 22 2.2
2015-Mar-29 23:37 167 9 gusting 22 2.2
2015-Mar-29 23:32 165 10 gusting 18 2.2
2015-Mar-29 23:27 155 9 gusting 18 2.2
2015-Mar-29 23:22 159 9 gusting 18 2.2
2015-Mar-29 23:17 202 9 gusting 18 2.2
2015-Mar-29 23:12 150 9 gusting 19 2.2
2015-Mar-29 23:07 184 10 gusting 19 2.2
2015-Mar-29 23:02 147 11 gusting 19 2.2
2015-Mar-29 22:57 145 11 gusting 19 2.2
2015-Mar-29 22:52 148 10 gusting 18 2.2
2015-Mar-29 22:47 162 10 gusting 18 2.2
2015-Mar-29 22:42 161 10 gusting 18 2.2
2015-Mar-29 22:37 163 9 gusting 18 2.2
2015-Mar-29 22:32 169 8 gusting 16 2.2
2015-Mar-29 22:27 164 8 gusting 16 2.2
2015-Mar-29 22:22 190 8 gusting 17 2.2
2015-Mar-29 22:17 180 7 gusting 17 1.7
2015-Mar-29 22:12 155 7 gusting 17 1.7
2015-Mar-29 22:07 152 8 gusting 14 2.2
2015-Mar-29 22:02 185 7 gusting 14 1.7
2015-Mar-29 21:57 175 7 gusting 14 1.7
2015-Mar-29 21:52 153 7 gusting 14 1.7
2015-Mar-29 21:47 136 7 gusting 18 2.2
2015-Mar-29 21:42 148 6 gusting 18 2.2
2015-Mar-29 21:37 149 7 gusting 19 2.2
2015-Mar-29 21:32 164 9 gusting 19 2.2
2015-Mar-29 21:27 169 8 gusting 19 2.2
2015-Mar-29 21:22 161 8 gusting 19 2.2
2015-Mar-29 21:17 170 9 gusting 17 2.2
2015-Mar-29 21:12 155 9 gusting 17 2.2
2015-Mar-29 21:07 219 9 gusting 15 2.2
2015-Mar-29 21:02 186 9 gusting 15 2.2
2015-Mar-29 20:57 167 9 gusting 17 2.2
2015-Mar-29 20:52 163 9 gusting 17 2.2
2015-Mar-29 20:47 162 9 gusting 16 2.2
2015-Mar-29 20:42 150 8 gusting 16 2.2
2015-Mar-29 20:37 177 8 gusting 16 2.2
2015-Mar-29 20:32 205 9 gusting 16 2.2
2015-Mar-29 20:27 142 8 gusting 14 2.2
2015-Mar-29 20:22 161 8 gusting 14 2.2
2015-Mar-29 20:17 160 8 gusting 15 2.2
2015-Mar-29 20:12 183 8 gusting 15 2.2
2015-Mar-29 20:07 141 8 gusting 17 2.2
2015-Mar-29 20:02 174 8 gusting 17 2.2
2015-Mar-29 19:57 175 8 gusting 16 2.2
2015-Mar-29 19:52 154 8 gusting 16 2.2
2015-Mar-29 19:47 179 8 gusting 16 2.2
2015-Mar-29 19:42 170 7 gusting 16 2.2
2015-Mar-29 19:37 159 8 gusting 18 2.2
2015-Mar-29 19:32 191 9 gusting 18 2.2
2015-Mar-29 19:27 154 8 gusting 16 2.2
2015-Mar-29 19:22 182 7 gusting 16 2.2
2015-Mar-29 19:17 153 8 gusting 13 2.8
2015-Mar-29 19:12 161 7 gusting 13 2.8
2015-Mar-29 19:07 171 6 gusting 13 2.8
2015-Mar-29 19:02 171 6 gusting 13 2.8
2015-Mar-29 18:57 161 6 gusting 15 2.8
2015-Mar-29 18:52 174 6 gusting 15 2.8
2015-Mar-29 18:47 186 6 gusting 15 2.8
2015-Mar-29 18:42 178 7 gusting 15 2.8
2015-Mar-29 18:37 150 7 gusting 16 2.8
2015-Mar-29 18:32 140 7 gusting 16 2.8
2015-Mar-29 18:27 163 7 gusting 18 2.8
2015-Mar-29 18:22 150 6 gusting 18 2.8
2015-Mar-29 18:17 180 7 gusting 19 2.8
2015-Mar-29 18:12 184 7 gusting 19 2.8
2015-Mar-29 18:07 168 7 gusting 14 2.8
2015-Mar-29 18:02 135 6 gusting 14 2.8
2015-Mar-29 17:57 161 6 gusting 16 2.8
2015-Mar-29 17:52 157 6 gusting 16 2.8
2015-Mar-29 17:47 167 6 gusting 16 2.2
2015-Mar-29 17:42 171 7 gusting 16 2.2
2015-Mar-29 17:37 169 7 gusting 13 2.2
2015-Mar-29 17:32 154 6 gusting 13 2.2
2015-Mar-29 17:27 167 6 gusting 12 2.2
2015-Mar-29 17:22 150 6 gusting 12 2.2
2015-Mar-29 17:17 148 6 gusting 12 2.2
2015-Mar-29 17:12 179 6 gusting 12 2.2
2015-Mar-29 17:07 172 6 gusting 13 2.2
2015-Mar-29 17:02 169 6 gusting 13 2.2
2015-Mar-29 16:57 172 6 gusting 14 2.2
2015-Mar-29 16:52 150 6 gusting 14 2.2
2015-Mar-29 16:47 163 6 gusting 14 2.2
2015-Mar-29 16:42 139 7 gusting 14 2.2
2015-Mar-29 16:37 153 7 gusting 14 2.8
2015-Mar-29 16:32 152 6 gusting 14 2.8
2015-Mar-29 16:27 155 6 gusting 15 2.8
2015-Mar-29 16:22 171 6 gusting 15 2.8
2015-Mar-29 16:17 144 7 gusting 14 2.8
2015-Mar-29 16:12 146 7 gusting 14 2.8
2015-Mar-29 16:07 137 6 gusting 14 2.8
2015-Mar-29 16:02 146 7 gusting 14 2.8
2015-Mar-29 15:57 187 6 gusting 14 2.8
2015-Mar-29 15:52 166 6 gusting 15 2.8
2015-Mar-29 15:47 165 7 gusting 15 2.8
2015-Mar-29 15:42 174 7 gusting 15 2.8
2015-Mar-29 15:37 169 8 gusting 17 2.8
2015-Mar-29 15:32 157 8 gusting 17 2.8
2015-Mar-29 15:27 180 7 gusting 15 2.8
2015-Mar-29 15:22 148 7 gusting 15 2.8
2015-Mar-29 15:17 157 7 gusting 15 2.8
2015-Mar-29 15:12 146 6 gusting 15 2.8
2015-Mar-29 15:07 171 7 gusting 15 2.8
2015-Mar-29 15:02 157 8 gusting 16 2.8
2015-Mar-29 14:57 174 8 gusting 16 2.8
2015-Mar-29 14:52 166 7 gusting 13 2.8
2015-Mar-29 14:47 153 7 gusting 13 2.8
2015-Mar-29 14:42 190 6 gusting 14 2.8
2015-Mar-29 14:37 173 6 gusting 14 2.8
2015-Mar-29 14:32 157 7 gusting 18 2.8
2015-Mar-29 14:27 164 8 gusting 18 2.8
2015-Mar-29 14:22 141 9 gusting 18 2.8
2015-Mar-29 14:17 171 9 gusting 18 2.8
2015-Mar-29 14:12 171 10 gusting 18 2.8
2015-Mar-29 14:07 150 9 gusting 18 2.8
2015-Mar-29 14:02 150 7 gusting 15 2.8
2015-Mar-29 13:57 184 6 gusting 15 2.8
2015-Mar-29 13:52 210 6 gusting 13 2.8
2015-Mar-29 13:47 139 6 gusting 13 2.8
2015-Mar-29 13:42 133 6 gusting 16 2.8
2015-Mar-29 13:37 159 6 gusting 16 2.8
2015-Mar-29 13:32 182 6 gusting 16 2.8
2015-Mar-29 13:27 155 8 gusting 16 2.8
2015-Mar-29 13:22 161 8 gusting 19 2.8
2015-Mar-29 13:17 194 6 gusting 19 2.8
2015-Mar-29 13:12 186 6 gusting 19 2.8
2015-Mar-29 13:07 175 6 gusting 19 2.8
2015-Mar-29 13:02 174 6 gusting 12 2.8
2015-Mar-29 12:57 179 5 gusting 12 3.3
2015-Mar-29 12:52 165 5 gusting 16 3.3
2015-Mar-29 12:47 160 5 gusting 16 3.3
2015-Mar-29 12:42 224 4 gusting 16 3.3
2015-Mar-29 12:37 204 6 gusting 17 3.3
2015-Mar-29 12:32 167 6 gusting 17 3.3
2015-Mar-29 12:27 207 5 gusting 17 3.3
2015-Mar-29 12:22 217 5 gusting 17 3.3
2015-Mar-29 12:17 171 5 gusting 12 3.3
2015-Mar-29 12:12 162 5 gusting 12 3.3
2015-Mar-29 12:07 213 5 gusting 11 3.3
2015-Mar-29 12:02 198 4 gusting 11 3.3
2015-Mar-29 11:57 225 4 gusting 11 3.3
2015-Mar-29 11:52 182 4 gusting 11 3.3
2015-Mar-29 11:47 204 4 gusting 16 3.3
2015-Mar-29 11:42 181 4 gusting 16 3.3
2015-Mar-29 11:37 205 6 gusting 13 3.3
2015-Mar-29 11:32 198 6 gusting 13 3.3
2015-Mar-29 11:27 211 5 gusting 13 3.3
2015-Mar-29 11:22 186 5 gusting 13 3.3
2015-Mar-29 11:17 224 5 gusting 13 3.3
2015-Mar-29 11:12 165 5 gusting 13 3.3
2015-Mar-29 11:07 178 5 gusting 17 3.3
2015-Mar-29 11:02 209 5 gusting 17 3.3
2015-Mar-29 10:57 173 5 gusting 17 3.3
2015-Mar-29 10:52 192 5 gusting 17 3.3
2015-Mar-29 10:47 185 6 gusting 17 3.3
2015-Mar-29 10:42 196 6 gusting 17 3.3
2015-Mar-29 10:37 154 5 gusting 13 2.8
2015-Mar-29 10:32 219 5 gusting 13 2.8
2015-Mar-29 10:27 176 5 gusting 13 2.8
2015-Mar-29 10:22 170 5 gusting 13 2.8
2015-Mar-29 10:17 154 5 gusting 12 2.8
2015-Mar-29 10:12 221 5 gusting 12 2.8
2015-Mar-29 10:07 183 5 gusting 12 2.8
2015-Mar-29 10:02 185 4 gusting 12 2.8
2015-Mar-29 09:57 203 4 gusting 11 2.8
2015-Mar-29 09:52 173 4 gusting 11 2.8
2015-Mar-29 09:47 155 4 gusting 11 2.8
2015-Mar-29 09:42 177 4 gusting 11 2.8
2015-Mar-29 09:37 163 4 gusting 12 2.8
2015-Mar-29 09:32 187 4 gusting 12 2.8
2015-Mar-29 09:27 184 4 gusting 12 2.8
2015-Mar-29 09:22 180 4 gusting 12 2.8
2015-Mar-29 09:17 169 4 gusting 10 2.2
2015-Mar-29 09:12 225 4 gusting 10 2.2
2015-Mar-29 09:07 194 4 gusting 10 2.8
2015-Mar-29 09:02 159 3 gusting 10 2.8
2015-Mar-29 08:57 181 3 gusting 12 2.2
2015-Mar-29 08:52 184 4 gusting 12 2.2
2015-Mar-29 08:47 169 5 gusting 12 2.2
2015-Mar-29 08:42 173 4 gusting 12 2.2
2015-Mar-29 08:37 157 3 gusting 12 2.2
2015-Mar-29 08:32 166 3 gusting 12 2.2
2015-Mar-29 08:27 160 3 gusting 10 2.2
2015-Mar-29 08:22 184 3 gusting 10 2.2
2015-Mar-29 08:17 181 3 gusting 10 2.2
2015-Mar-29 08:12 167 4 gusting 11 1.7
2015-Mar-29 08:07 164 4 gusting 11 1.7
2015-Mar-29 08:02 194 4 gusting 11 1.7
2015-Mar-29 07:57 176 3 gusting 9 1.7
2015-Mar-29 07:52 194 3 gusting 9 1.7
2015-Mar-29 07:47 188 3 gusting 8 1.7
2015-Mar-29 07:42 188 2 gusting 8 1.7
2015-Mar-29 07:37 189 2 gusting 8 1.7
2015-Mar-29 07:32 202 2 gusting 8 1.7
2015-Mar-29 07:27 180 2 gusting 9 1.7
2015-Mar-29 07:22 230 3 gusting 9 1.7
2015-Mar-29 07:17 182 3 gusting 9 1.1
2015-Mar-29 07:12 223 3 gusting 9 1.1
2015-Mar-29 07:07 176 3 gusting 9 1.1
2015-Mar-29 07:02 169 3 gusting 9 1.1
2015-Mar-29 06:57 171 3 gusting 10 1.1
2015-Mar-29 06:52 180 4 gusting 10 1.1
2015-Mar-29 06:47 161 4 gusting 7 1.1
2015-Mar-29 06:42 171 4 gusting 7 1.1
2015-Mar-29 06:37 188 4 gusting 7 1.1
2015-Mar-29 06:32 174 3 gusting 7 1.1
2015-Mar-29 06:27 197 1 gusting 8 1.1
2015-Mar-29 06:22 190 1 gusting 8 1.1
2015-Mar-29 06:17 209 1 gusting 8 1.1
2015-Mar-29 06:12 188 2 gusting 8 1.1
2015-Mar-29 06:07 184 2 gusting 8 1.1
2015-Mar-29 06:02 192 2 gusting 8 1.1
2015-Mar-29 05:57 197 2 gusting 10 1.1
2015-Mar-29 05:52 202 2 gusting 10 1.1
2015-Mar-29 05:47 175 1 gusting 10 1.1
2015-Mar-29 05:42 216 1 gusting 10 1.1
2015-Mar-29 05:37 162 2 gusting 10 1.1
2015-Mar-29 05:32 192 3 gusting 10 1.1
2015-Mar-29 05:27 186 2 gusting 10 1.1
2015-Mar-29 05:22 234 3 gusting 10 1.1
2015-Mar-29 05:17 221 4 gusting 10 1.1
2015-Mar-29 05:12 168 4 gusting 8 0.6
2015-Mar-29 05:07 241 5 gusting 8 0.6
2015-Mar-29 05:02 243 4 gusting 8 0.6
2015-Mar-29 04:57 212 3 gusting 7 0.6
2015-Mar-29 04:52 203 3 gusting 7 0.6
2015-Mar-29 04:47 218 3 gusting 6 0.6
2015-Mar-29 04:42 202 3 gusting 6 0.6
2015-Mar-29 04:37 218 2 gusting 6 0.6
2015-Mar-29 04:32 172 2 gusting 6 0.6
2015-Mar-29 04:27 228 2 gusting 7 0.6
2015-Mar-29 04:22 220 2 gusting 7 0.6
2015-Mar-29 04:17 198 2 gusting 7 0.6
2015-Mar-29 04:12 182 2 gusting 7 0.6
2015-Mar-29 04:07 198 1 gusting 6 0.6
2015-Mar-29 04:02 205 1 gusting 6 0.6
2015-Mar-29 03:57 165 2 gusting 6 0.6
2015-Mar-29 03:52 227 1 gusting 6 0.6
2015-Mar-29 03:47 204 1 gusting 6 0.6
2015-Mar-29 03:42 197 1 gusting 6 0.6
2015-Mar-29 03:37 177 2 gusting 6 0.6
2015-Mar-29 03:32 169 2 gusting 6 0.6
2015-Mar-29 03:27 157 2 gusting 6 0.6
2015-Mar-29 03:22 163 2 gusting 6 0.6
2015-Mar-29 03:17 202 3 gusting 6 0.6
2015-Mar-29 03:12 171 2 gusting 6 0.6
2015-Mar-29 03:07 202 2 gusting 5 0.6
2015-Mar-29 03:02 166 1 gusting 5 0.6
2015-Mar-29 02:57 164 1 gusting 5 0.6
2015-Mar-29 02:52 190 1 gusting 4 0.6
2015-Mar-29 02:47 194 0 gusting 4 0.6
2015-Mar-29 02:42 186 0 gusting 4 0.6
2015-Mar-29 02:37 186 1 gusting 3 0.6
2015-Mar-29 02:32 204 0 gusting 3 0.6
2015-Mar-29 02:27 198 0 gusting 5 0.6
2015-Mar-29 02:22 182 0 gusting 5 0.6
2015-Mar-29 02:17 221 0 gusting 5 0.6
2015-Mar-29 02:12 190 1 gusting 5 0.6
2015-Mar-29 02:07 217 1 gusting 6 0.6
2015-Mar-29 02:02 190 0 gusting 6 0.6
2015-Mar-29 01:57 192 0 gusting 6 0.6
2015-Mar-29 01:52 153 0 gusting 6 0.6
2015-Mar-29 01:47 171 1 gusting 6 0.6
2015-Mar-29 01:42 171 1 gusting 4 0.6
2015-Mar-29 01:37 202 1 gusting 4 0.6
2015-Mar-29 01:32 225 1 gusting 3 0.6
2015-Mar-29 01:27 211 0 gusting 3 0.6
2015-Mar-29 01:22 236 0 gusting 3 0.6
2015-Mar-29 01:17 236 0 gusting 3 0.6
2015-Mar-29 01:12 217 1 gusting 4 0.6
2015-Mar-29 01:07 213 0 gusting 4 0.6
2015-Mar-29 01:02 201 0 gusting 6 0.6
2015-Mar-29 00:57 202 1 gusting 6 0.6
2015-Mar-29 00:52 225 1 gusting 6 0.6
2015-Mar-29 00:47 227 1 gusting 6 0.6
2015-Mar-29 00:42 228 0 gusting 6 1.1
2015-Mar-29 00:37 221 1 gusting 6 1.1
2015-Mar-29 00:32 231 0 gusting 6 1.1
2015-Mar-29 00:27 205 0 gusting 6 1.1
2015-Mar-29 00:22 206 1.1
2015-Mar-29 00:17 206 0 gusting 6 1.1
2015-Mar-29 00:12 207 1 gusting 6 1.1
2015-Mar-29 00:07 232 1 gusting 6 1.1
2015-Mar-29 00:02 218 1 gusting 6 1.1
2015-Mar-28 23:57 218 1 gusting 6 1.1
2015-Mar-28 23:52 207 1 gusting 6 1.1
2015-Mar-28 23:47 187 1 gusting 6 1.1
2015-Mar-28 23:42 212 1 gusting 6 1.1
2015-Mar-28 23:37 221 2 gusting 6 1.1
2015-Mar-28 23:32 194 2 gusting 6 1.1
2015-Mar-28 23:27 219 2 gusting 6 1.1
2015-Mar-28 23:22 242 1 gusting 5 1.1
2015-Mar-28 23:17 233 1 gusting 5 1.1
2015-Mar-28 23:12 190 1 gusting 5 1.1
2015-Mar-28 23:07 190 1 gusting 5 1.1
2015-Mar-28 23:02 219 1 gusting 2 1.1
2015-Mar-28 22:57 235 0 gusting 2 1.1
2015-Mar-28 22:52 236 0 gusting 2 1.1
2015-Mar-28 22:47 223 0.6
2015-Mar-28 22:42 213 0.6
2015-Mar-28 22:37 213 0.6
2015-Mar-28 22:32 213 0.6
2015-Mar-28 22:27 213 0.6
2015-Mar-28 22:22 213 0.6
2015-Mar-28 22:17 213 0.6
2015-Mar-28 22:12 213 0.6
2015-Mar-28 22:07 213 0.6
2015-Mar-28 22:02 213 1.1
2015-Mar-28 21:57 213 1.1
2015-Mar-28 21:52 213 1.1
2015-Mar-28 21:47 212 1.1
2015-Mar-28 21:42 212 1.1
2015-Mar-28 21:37 213 1.1
2015-Mar-28 21:32 213 1.1
2015-Mar-28 21:27 213 1.1
2015-Mar-28 21:22 213 0 gusting 4 1.1
2015-Mar-28 21:17 212 0 gusting 2 1.1
2015-Mar-28 21:12 210 0 gusting 2 1.7
2015-Mar-28 21:07 225 0 gusting 2 1.7
2015-Mar-28 21:02 225 0 gusting 2 1.7
2015-Mar-28 20:57 225 1.7
2015-Mar-28 20:52 225 1.7
2015-Mar-28 20:47 225 1.7
2015-Mar-28 20:42 225 1.7
2015-Mar-28 20:37 225 1.7
2015-Mar-28 20:32 226 0 gusting 3 1.7
2015-Mar-28 20:27 225 0 gusting 3 1.7
2015-Mar-28 20:22 224 0 gusting 3 1.7
2015-Mar-28 20:17 224 0 gusting 5 1.7
2015-Mar-28 20:12 224 0 gusting 5 1.7
2015-Mar-28 20:07 244 0 gusting 5 1.7
2015-Mar-28 20:02 244 1 gusting 5 1.7
2015-Mar-28 19:57 190 1 gusting 3 1.7
2015-Mar-28 19:52 229 1 gusting 3 1.7
2015-Mar-28 19:47 225 0 gusting 3 1.7
2015-Mar-28 19:42 225 0 gusting 3 1.7
2015-Mar-28 19:37 225 1 gusting 2 1.7
2015-Mar-28 19:32 226 0 gusting 2 1.7
2015-Mar-28 19:27 225 0 gusting 3 1.7
2015-Mar-28 19:22 225 0 gusting 3 1.7
2015-Mar-28 19:17 225 0 gusting 3 1.7
2015-Mar-28 19:12 225 1 gusting 3 1.7
2015-Mar-28 19:07 214 1 gusting 3 1.7
2015-Mar-28 19:02 226 0 gusting 3 1.7
2015-Mar-28 18:57 210 0 gusting 3 1.7
2015-Mar-28 18:52 235 1 gusting 3 1.7
2015-Mar-28 18:47 235 1 gusting 3 1.7
2015-Mar-28 18:42 246 0 gusting 3 1.7
2015-Mar-28 18:37 220 0 gusting 3 1.7
2015-Mar-28 18:32 220 0 gusting 3 1.7
2015-Mar-28 18:27 225 1.7
2015-Mar-28 18:22 225 1.7
2015-Mar-28 18:17 224 1.7
2015-Mar-28 18:12 225 1.7
2015-Mar-28 18:07 225 1.7
2015-Mar-28 18:02 225 1.7
2015-Mar-28 17:57 225 1.7
2015-Mar-28 17:52 225 1.7
2015-Mar-28 17:47 225 1.7
2015-Mar-28 17:42 225 1.7
2015-Mar-28 17:37 225 1.7
2015-Mar-28 17:32 225 1.7
2015-Mar-28 17:27 225 1.7
2015-Mar-28 17:22 225 1.7
2015-Mar-28 17:17 225 1.7
2015-Mar-28 17:12 225 2.2
2015-Mar-28 17:07 225 2.2
2015-Mar-28 17:02 225 2.2
2015-Mar-28 16:57 225 2.2
2015-Mar-28 16:52 225 2.2
2015-Mar-28 16:47 225 0 gusting 2 2.2
2015-Mar-28 16:42 223 0 gusting 2 2.2
2015-Mar-28 16:37 223 2.2
2015-Mar-28 16:32 223 2.2
2015-Mar-28 16:27 223 2.2
2015-Mar-28 16:22 223 2.2
2015-Mar-28 16:17 223 0 gusting 3 2.2
2015-Mar-28 16:12 223 0 gusting 2 2.8
2015-Mar-28 16:07 243 0 gusting 2 2.8
2015-Mar-28 16:02 243 0 gusting 6 2.8